Skip Page Navigation
NASA JPL Caltech
NASA Logo - Jet Propulsion Laboratory + View the NASA Portal
+ Center for Near-Earth Object Studies
JPL Home Earth Solar System Stars & Galaxies Technology
JPL Solar System Dynamics
BODIES ORBITS EPHEMERIDES TOOLS PHYSICAL DATA DISCOVERY FAQ SITE MAP
JPL Small-Body Database Browser
Search: [ help ]  
183124 (2002 RU179)
Classification: Main-belt Asteroid          SPK-ID: 2183124
Ephemeris | Orbit Diagram | Orbital Elements | Mission Design | Physical Parameters | Discovery Circumstances ]

[ show orbit diagram ]
Orbital Elements at Epoch 2459000.5 (2020-May-31.0) TDB
Reference: JPL 13 (heliocentric ecliptic J2000)
 Element Value Uncertainty (1-sigma)   Units 
e .1806516782343703 6.599e-08  
a 2.628878629478129 1.7613e-08 au
q 2.153967293188433 1.8025e-07 au
i 3.019659898671052 7.7106e-06 deg
node 6.687894632830841 8.1268e-05 deg
peri 45.61689827984721 8.4074e-05 deg
M 19.74713781726167 1.8422e-05 deg
tp 2458915.100390024528
(2020-Mar-06.60039002)
7.9366e-05 TDB
period 1556.876742121875
4.26
1.5646e-05
4.284e-08
d
yr
n .2312321780267295 2.3238e-09 deg/d
Q 3.103789965767824 2.0795e-08 au
  Orbit Determination Parameters
   # obs. used (total)      281  
   data-arc span      7206 days (19.73 yr)  
   first obs. used      2000-03-03  
   last obs. used      2019-11-25  
   planetary ephem.      DE431  
   SB-pert. ephem.      SB431-N16  
   condition code      0  
   norm. resid. RMS      .58131  
   source      ORB  
   producer      Otto Matic  
   solution date      2019-Dec-14 13:26:18  

Additional Information
 Earth MOID = 1.16614 au 
 Jupiter MOID = 2.27385 au 
 T_jup = 3.376 
[ show covariance matrix ]

Ephemeris | Orbit Diagram | Orbital Elements | Mission Design | Physical Parameters | Discovery Circumstances ]

Physical Parameter Table
Parameter Symbol Value Units Sigma Reference Notes
absolute magnitude H 16.9   n/a MPO494014  

183124 (2002 RU179)          Discovered 2002-Sep-14 by Spacewatch at Kitt Peak
Reference: 20080420/Numbers.arcLast Updated: 2008-04-23
Ephemeris | Orbit Diagram | Orbital Elements | Mission Design | Physical Parameters | Discovery Circumstances ]
ABOUT SSD CREDITS/AWARDS PRIVACY/COPYRIGHT GLOSSARY LINKS
FirstGov 2020-Jul-12 08:10 UT
(server date/time)  
NASA Home Page
Site Manager:   Ryan S. Park
Webmaster  Alan B. Chamberlin